Weather in Teterow

Germany     53°46′12″N   12°34′24″E
В апреле 2022 года жителям России запретили посещать сайт meteo.paraplan.net по решению Генеральной прокуратуры. Аудитория сайта уменьшилась в 10 раз. Владельцы сайта не видят смысла в поддержке погодного сервера в таких условиях. Сайт будет закрыт в октябре.
temp.,
°C
wind,
m/s
gust,
m/s
humid.,
%
clouds,
%
prec.,
mm/h
press.,
hPa
HPBL,
m
3 october, mon
mon323:00+11wnw6139237 0.0 1016588
02:00+12wnw81384100 0.1 1017883
05:00+12wnw7138386 0.1 1018903
08:00+11wnw6138860 0.1 1019770
11:00+13wnw71182100 0.2 10201071
14:00+15nw812625 0.5 10201427
17:00+15nw712690 0.0 10201313
20:00+13wnw614826 0.1 1020583
4 october, tue
tue423:00+11wnw5129462 0.2 1020449
02:00+11wnw5109478 0.3 1020497
05:00+11wnw598987 0.1 1020527
08:00+11w379447 0.1 1020272
11:00+14w467797 0.0 1020557
14:00+16wsw466363 0.0 1019980
17:00+16wsw46645 0.0 1018960
20:00+12ssw358167 0.0 101867
5 october, wed
wed523:00+11ssw4980100 0.0 1018165
02:00+12ssw41076100 0.0 1017227
05:00+10ssw41081100 0.0 1016203
08:00+11ssw41179100 0.0 1015262
11:00+15sw61265100 0.0 1015501
14:00+18sw71158100 0.0 1013786
17:00+18ssw71361100 0.0 1012714
20:00+16ssw8176519 0.0 1013575
6 october, thu
thu623:00+15sw7167212 0.0 1014602
02:00+14w7147786 0.1 1017957
05:00+11wsw714881 0.0 1020748
08:00+11wsw715820 0.0 1023836
11:00+14w812640 0.0 10261092
14:00+16wsw811541 0.0 10261435
17:00+15wsw610570 0.0 10261327
20:00+12wsw512680 0.0 1028329
7 october, fri
fri723:00+10sw412764 0.0 1028257
02:00+9sw410800 0.0 1027207
05:00+8ssw49860 0.0 1026184
08:00+8ssw4108553 0.0 1025231
11:00+13sw6106010 0.0 1024563
14:00+16sw684662 0.0 10221023
17:00+15ssw4848100 0.0 1019352
20:00+11sw41057100 0.0 1018198